Waarnemingen

Advertentie
Mijn weer
Antwerpen, België (6450): temperatuur & dauwpunt: 09.08.2018 15:00:00 - 15.08.2018 15:00:00 (CEST)Antwerpen, België (6450): windsnelheid & windstoten: 09.08.2018 15:00:00 - 15.08.2018 15:00:00 (CEST)Antwerpen, België (6450): windrichting: 09.08.2018 15:00:00 - 15.08.2018 15:00:00 (CEST)Antwerpen, België (6450): luchtdruk: 09.08.2018 15:00:00 - 15.08.2018 15:00:00 (CEST)Antwerpen, België (6450): zicht: 09.08.2018 15:00:00 - 15.08.2018 15:00:00 (CEST)
Datum & Tijd tt [°C] td [°C] ff [km/u] ff [kn] fx [km/u] fx [kn] dd ppp [hPa] vv [km]
15.08.2018 15:00:00 21,8 14,6 15 8 29 16 WZW 1019,9 10
15.08.2018 14:00:00 20,7 13,7 18 10 - - WZW 1020,0 10
15.08.2018 13:00:00 19,4 14,0 16 9 29 16 WZW 1020,0 10
15.08.2018 12:00:00 20,0 15,2 18 10 29 16 WZW 1020,0 10
15.08.2018 11:00:00 20,0 15,9 13 7 - - ZW 1019,9 10
15.08.2018 10:00:00 18,5 16,0 13 7 25 14 WZW 1019,6 10
15.08.2018 09:00:00 18,2 15,7 13 7 25 14 W 1019,3 10
15.08.2018 08:00:00 17,9 15,7 11 6 - - ZW 1018,8 10
15.08.2018 07:00:00 17,6 15,3 11 6 18 10 ZW 1018,5 10
15.08.2018 06:00:00 17,3 15,0 9 5 14 8 ZW 1018,3 10
15.08.2018 05:00:00 17,3 14,4 9 5 - - ZW 1018,3 10
15.08.2018 04:00:00 17,4 14,2 13 7 18 10 ZW 1018,6 10
15.08.2018 03:00:00 17,5 14,1 9 5 14 8 ZZW 1018,7 10
15.08.2018 02:00:00 17,1 14,1 8 4 - - ZW 1019,1 10
15.08.2018 01:00:00 17,8 13,9 9 5 14 8 ZW 1019,1 10
15.08.2018 00:00:00 18,6 13,4 9 5 14 8 ZW 1018,8 10
14.08.2018 23:00:00 19,3 13,0 9 5 - - W 1018,5 10
14.08.2018 22:00:00 19,7 12,9 9 5 14 8 W 1018,6 10
14.08.2018 21:00:00 19,9 12,5 11 6 25 14 W 1018,1 10
14.08.2018 20:00:00 20,4 11,9 16 9 - - WNW 1017,9 10
14.08.2018 19:00:00 20,9 12,0 22 12 36 19 WNW 1017,6 10
14.08.2018 18:00:00 21,7 12,2 22 12 40 21 WNW 1017,2 10
14.08.2018 17:00:00 22,3 14,0 29 16 - - WNW 1017,0 10
14.08.2018 16:00:00 21,5 15,7 16 9 32 18 W 1016,8 10
14.08.2018 15:00:00 21,3 17,4 13 7 22 12 WNW 1016,5 10
14.08.2018 14:00:00 19,7 17,1 15 8 - - WNW 1016,2 10
14.08.2018 13:00:00 21,3 16,7 16 9 25 14 WZW 1015,7 10
14.08.2018 12:00:00 18,9 16,9 11 6 25 14 W 1015,5 10
14.08.2018 11:00:00 20,6 16,7 11 6 - - W 1014,8 10
14.08.2018 10:00:00 19,7 16,1 15 8 22 12 W 1014,4 10
14.08.2018 09:00:00 18,6 16,2 9 5 14 8 WZW 1013,7 10
14.08.2018 08:00:00 17,9 16,4 9 5 - - W 1013,1 6
14.08.2018 07:00:00 17,2 16,0 11 6 18 10 WZW 1012,3 4,7
14.08.2018 06:00:00 17,2 15,9 11 6 22 12 W 1011,7 5
14.08.2018 05:00:00 16,8 15,4 11 6 - - WZW 1011,4 7
14.08.2018 04:00:00 16,3 15,0 13 7 22 12 ZW 1010,9 10
14.08.2018 03:00:00 16,5 15,1 13 7 22 12 WZW 1010,8 10
14.08.2018 02:00:00 16,7 15,2 11 6 - - WZW 1010,7 10
14.08.2018 01:00:00 17,3 15,4 11 6 22 12 WZW 1010,2 10
14.08.2018 00:00:00 17,7 15,9 13 7 22 12 WZW 1009,6 10
13.08.2018 23:00:00 17,9 16,1 9 5 - - ZW 1009,2 10
13.08.2018 22:00:00 17,8 15,9 13 7 25 14 WZW 1008,8 10
13.08.2018 21:00:00 18,1 15,8 18 10 43 23 WZW 1008,5 10
13.08.2018 20:00:00 20,3 15,2 13 7 - - ZW 1007,7 10
13.08.2018 19:00:00 21,0 14,9 15 8 29 16 WZW 1007,3 10
13.08.2018 18:00:00 20,8 14,8 18 10 32 18 W 1007,3 10
13.08.2018 17:00:00 20,4 14,3 24 13 - - W 1007,0 10
13.08.2018 16:00:00 21,4 15,2 21 11 36 19 W 1006,7 10
13.08.2018 15:00:00 20,3 16,8 16 9 32 18 W 1006,7 10
13.08.2018 14:00:00 19,9 16,6 13 7 - - ZW 1006,5 10
13.08.2018 13:00:00 19,6 17,6 13 7 32 18 ZW 1006,4 10
13.08.2018 12:00:00 19,9 16,8 13 7 25 14 ZW 1006,4 10
13.08.2018 11:00:00 18,8 16,6 13 7 - - ZW 1006,5 10
13.08.2018 10:00:00 19,1 17,3 13 7 25 14 ZZW 1006,3 10
13.08.2018 09:00:00 18,3 16,6 15 8 25 14 ZW 1006,6 10
13.08.2018 08:00:00 17,9 16,4 8 4 - - ZZW 1006,3 7
13.08.2018 07:00:00 18,1 15,9 9 5 14 8 Z 1006,2 10
13.08.2018 06:00:00 18,0 16,5 9 5 14 8 ZZO 1006,1 10
13.08.2018 05:00:00 19,3 16,4 8 4 - - ZZW 1006,7 10
13.08.2018 04:00:00 19,6 16,6 4 2 22 12 - 1006,7 10
13.08.2018 03:00:00 20,0 16,5 15 8 25 14 WNW 1007,4 10
13.08.2018 02:00:00 21,1 14,4 4 2 - - - 1007,6 10
13.08.2018 01:00:00 21,6 13,2 5 3 18 10 WZW 1008,1 10
13.08.2018 00:00:00 21,0 14,5 4 2 7 4 OZO 1008,1 10
12.08.2018 23:00:00 21,0 15,2 8 4 - - ZO 1008,6 10
12.08.2018 22:00:00 22,0 15,3 2 1 11 6 OZO 1009,2 10
12.08.2018 21:00:00 23,5 14,4 4 2 7 4 OZO 1009,4 10
12.08.2018 20:00:00 26,2 10,7 5 3 - - ZW 1009,6 10
12.08.2018 19:00:00 26,9 9,6 11 6 25 14 ZZW 1010,2 10
12.08.2018 18:00:00 27,2 9,8 13 7 29 16 ZW 1010,8 10
12.08.2018 17:00:00 27,3 9,3 15 8 - - Z 1011,5 10
12.08.2018 16:00:00 27,1 9,1 13 7 32 18 Z 1012,3 10
12.08.2018 15:00:00 26,7 8,2 13 7 29 16 Z 1013,3 10
12.08.2018 14:00:00 27,1 7,6 15 8 - - ZZW 1014,0 10
12.08.2018 13:00:00 25,7 8,2 18 10 36 19 ZW 1014,8 10
12.08.2018 12:00:00 24,5 9,3 16 9 25 14 ZZW 1015,5 10
12.08.2018 11:00:00 22,3 10,1 13 7 - - Z 1015,8 10
12.08.2018 10:00:00 20,1 10,6 5 3 14 8 Z 1016,3 10
12.08.2018 09:00:00 18,1 9,9 9 5 14 8 ZZO 1016,7 10
12.08.2018 08:00:00 16,8 9,2 9 5 - - ZZO 1016,9 10
12.08.2018 07:00:00 15,5 9,4 9 5 11 6 ZO 1017,1 10
12.08.2018 06:00:00 14,8 10,8 7 4 11 6 ZO 1017,5 45
12.08.2018 05:00:00 14,8 11,4 4 2 - - - 1018,3 10
12.08.2018 04:00:00 13,5 10,7 5 3 7 4 ZO 1019,0 10
12.08.2018 03:00:00 13,7 10,0 4 2 7 4 OZO 1019,5 10
12.08.2018 02:00:00 13,5 10,0 5 3 - - ZO 1020,2 10
12.08.2018 01:00:00 13,6 9,9 4 2 7 4 OZO 1020,8 10
12.08.2018 00:00:00 14,6 10,1 4 2 7 4 ZO 1021,1 10
11.08.2018 23:00:00 14,5 9,6 2 1 - - - 1021,4 10
11.08.2018 22:00:00 15,1 9,7 5 3 7 4 ZO 1021,7 10
11.08.2018 21:00:00 19,7 6,8 5 3 22 12 ZZW 1021,8 10
11.08.2018 20:00:00 20,8 7,0 15 8 - - W 1022,0 10
11.08.2018 19:00:00 20,7 6,1 13 7 22 12 W 1022,4 10
11.08.2018 18:00:00 20,4 6,5 13 7 25 14 WZW 1022,7 10
11.08.2018 17:00:00 20,4 8,1 11 6 - - W 1022,9 10
11.08.2018 16:00:00 19,9 8,1 11 6 29 16 W 1023,4 10
11.08.2018 15:00:00 20,5 8,0 13 7 29 16 WZW 1023,5 10
11.08.2018 14:00:00 19,0 9,0 18 10 - - W 1024,0 30
11.08.2018 13:00:00 19,7 7,6 15 8 29 16 W 1023,9 10
11.08.2018 12:00:00 18,2 7,7 15 8 32 18 W 1023,9 10
11.08.2018 11:00:00 17,5 8,2 16 9 - - W 1023,9 10
11.08.2018 10:00:00 16,8 10,9 15 8 25 14 WZW 1023,7 10
11.08.2018 09:00:00 15,4 11,5 11 6 18 10 WZW 1023,2 10
11.08.2018 08:00:00 13,7 11,8 9 5 - - ZW 1022,6 10
11.08.2018 07:00:00 12,8 11,5 9 5 14 8 ZW 1022,1 10
11.08.2018 06:00:00 12,9 11,7 9 5 18 10 WZW 1021,7 10
11.08.2018 05:00:00 13,3 12,0 13 7 - - W 1021,3 10
11.08.2018 04:00:00 13,7 12,4 15 8 22 12 WZW 1021,0 10
11.08.2018 03:00:00 13,9 12,7 11 6 18 10 ZW 1020,9 10
11.08.2018 02:00:00 13,8 12,4 8 4 - - WZW 1021,0 10
11.08.2018 01:00:00 13,9 12,1 16 9 36 19 ZW 1021,0 10
11.08.2018 00:00:00 15,4 13,7 15 8 32 18 W 1020,3 10
10.08.2018 23:00:00 16,5 12,6 16 9 - - W 1020,2 10
10.08.2018 22:00:00 16,9 11,7 18 10 50 27 WZW 1020,3 10
10.08.2018 21:00:00 20,1 8,5 28 15 50 27 WZW 1019,9 10
10.08.2018 20:00:00 21,0 7,1 26 14 - - ZW 1019,5 10
10.08.2018 19:00:00 21,6 6,3 22 12 43 23 ZW 1019,8 10
10.08.2018 18:00:00 22,2 7,1 28 15 47 25 ZW 1020,0 10
10.08.2018 17:00:00 21,8 8,1 28 15 - - ZZW 1020,6 10
10.08.2018 16:00:00 21,0 9,7 22 12 40 21 ZW 1021,3 10
10.08.2018 15:00:00 19,1 10,1 16 9 54 29 ZW 1021,7 10
10.08.2018 14:00:00 20,4 7,7 24 13 - - WZW 1021,6 10
10.08.2018 13:00:00 19,8 8,7 26 14 40 21 ZW 1021,7 10
10.08.2018 12:00:00 18,7 9,3 24 13 40 21 ZZW 1021,8 10
10.08.2018 11:00:00 17,8 10,2 22 12 - - ZW 1021,7 10
10.08.2018 10:00:00 16,8 11,4 21 11 36 19 ZZW 1021,5 10
10.08.2018 09:00:00 15,2 11,7 18 10 36 19 ZW 1021,0 10
10.08.2018 08:00:00 14,0 11,4 18 10 - - ZZW 1020,5 10
10.08.2018 07:00:00 13,3 11,4 18 10 29 16 ZZW 1019,9 10
10.08.2018 06:00:00 13,4 11,9 13 7 22 12 ZZW 1019,5 10
10.08.2018 05:00:00 13,1 11,4 11 6 - - ZZW 1019,4 10
10.08.2018 04:00:00 13,5 11,6 13 7 22 12 ZW 1019,3 10
10.08.2018 03:00:00 13,8 12,2 15 8 25 14 WZW 1018,8 10
10.08.2018 02:00:00 13,9 12,5 16 9 - - WZW 1018,2 10
10.08.2018 01:00:00 14,3 12,8 16 9 29 16 WZW 1017,6 10
10.08.2018 00:00:00 14,8 13,3 18 10 43 23 W 1016,2 10
09.08.2018 23:00:00 15,1 13,2 29 16 - - WNW 1015,0 10
09.08.2018 22:00:00 15,8 14,4 26 14 50 27 WZW 1013,1 6
09.08.2018 21:00:00 16,5 15,7 26 14 40 21 W 1011,1 3,0
09.08.2018 20:00:00 18,4 15,4 16 9 - - WZW 1009,6 10
09.08.2018 19:00:00 19,1 15,5 32 18 54 29 ZW 1008,4 30
09.08.2018 18:00:00 21,3 18,0 26 14 43 23 ZW 1006,7 10
09.08.2018 17:00:00 20,9 18,8 13 7 - - ZO 1006,5 7
09.08.2018 16:00:00 20,1 17,7 9 5 22 12 ZO 1007,2 10
09.08.2018 15:00:00 19,6 17,5 11 6 22 12 OZO 1007,7 10

tt = temperatuur
td = dauwpunt
ff = windsnelheid
fx = windstoten
dd = windrichting
ppp = luchtdruk
vv = zicht

Weerstations in de omgeving